Regional Weather Roundup
Issued by NWS

Home | Current Version | Previous Version | Graphics & Text | Print | Product List | Glossary On
Versions: 1 2 3 4 5 6 7 8 9 10 11 12 13 14 15 16 17 18 19 20 21 22 23 24 25 26 27 28 29 30 31 32 33 34 35 36 37 38 39 40 41 42 43 44 45 46 47 48 49 50
000
ASUS43 KIND 230209
RWRIN

WEATHER ROUNDUP FOR INDIANA
NATIONAL WEATHER SERVICE INDIANAPOLIS IN
1000 PM EDT SUN APR 22 2018

NOTE: "FAIR" INDICATES FEW OR NO CLOUDS BELOW 12,000 FEET WITH NO
SIGNIFICANT WEATHER AND/OR OBSTRUCTIONS TO VISIBILITY.

* - STATION DOES NOT REPORT WEATHER SUCH AS PRECIPITATION OR FOG.

+ - STATION NOT QUALITY CONTROLLED BY THE NATIONAL WEATHER SERVICE.
    USE DATA WITH CAUTION...ESPECIALLY DEWPOINT AND RELATIVE
    HUMIDITY OBSERVATIONS.

INZ001>003-010>013-019-020-230300-
NORTHWEST INDIANA

CITY           SKY/WX    TMP DP  RH WIND       PRES   REMARKS
GARY /AIRPORT/ MOCLDY    43  32  65 NE8       30.27R
KNOX *+        FAIR      54  27  35 E9        30.25R
LA PORTE +     FAIR      52  26  36 E9        30.27R
MICHIGAN CITY+ FAIR      43  34  70 NE3       30.27S
MONTICELLO +   FAIR      56  26  31 NE12      30.20S
RENSSELAER +   FAIR      50  23  34 NE9       30.22R
VALPARAISO     FAIR      52  28  39 E10       30.25R

$$

LMZ046-743>745-230300-
SOUTHERN LAKE MICHIGAN

STATION/POSITION TIME  TEMP    WIND        PRES    WAVE
                       AIR SEA DIR/SP/G            HT
                 (UTC) (F)     (DEG/KT/KT) (MB)    (FT)
BURNS HARBOR     0140   42      60/ 11/ 13 1025.1S
MICHIGAN CITY    0140   42      40/ 13/ 14   N/A

$$

INZ004-005-014>016-021>024-230300-
NORTH CENTRAL INDIANA

CITY           SKY/WX    TMP DP  RH WIND       PRES   REMARKS
GOSHEN         FAIR      50  23  34 E8        30.27S
LOGANSPORT +   FAIR      54  27  35 E10G17    30.22S
ROCHESTER +    FAIR      54  23  30 E10       30.25S
SOUTH BEND     FAIR      54  18  24 E9        30.28S
WARSAW +       FAIR      48  27  43 E6        30.26S

$$

INZ006>009-017-018-025>027-230300-
NORTHEAST INDIANA

CITY           SKY/WX    TMP DP  RH WIND       PRES   REMARKS
AUBURN +       FAIR      46  27  46 NE9       30.28S
FORT WAYNE     MOCLDY    51  25  36 E16       30.26S
HUNTINGTON +   FAIR      50  23  35 E8        30.25S

$$

INZ028-029-035-036-043>045-051>053-230300-
WEST CENTRAL INDIANA

CITY           SKY/WX    TMP DP  RH WIND       PRES   REMARKS
CRAWFORDSVL +  FAIR      54  32  43 NE9       30.16S
GREENCASTLE +  FAIR      54  32  43 CALM      30.15S
LAFAYETTE      FAIR      55  32  41 NE10      30.18S
TERRE HAUTE    FAIR      53  35  50 E7        30.13S

$$

INZ030>032-037>040-046>048-054>057-064-065-230300-
CENTRAL INDIANA

CITY           SKY/WX    TMP DP  RH WIND       PRES   REMARKS
COLUMBUS       CLEAR     54 N/A N/A NE7       30.14F
FISHERS *+     FAIR      55  36  47 NE7       30.18S
FRANKFORT +    FAIR      57  32  38 E13       30.21R
INDIANAPOLIS   CLOUDY    59  29  31 NE13      30.16S
-EAGLE CREEK   FAIR      60  29  30 NE9       30.16S
KOKOMO +       FAIR      53  28  38 NE16      30.22S
MARION +       FAIR      53  28  38 E17       30.22S
MT COMFORT *+  FAIR      52  37  58 NE7       30.18S
SHELBYVILLE    FAIR      57  34  41 NE10      30.15S
ZIONSVILLE +   FAIR      55  31  39 E10       30.18S

$$

INZ033-034-041-042-049-050-058-059-230300-
EAST CENTRAL INDIANA

CITY           SKY/WX    TMP DP  RH WIND       PRES   REMARKS
MUNCIE         FAIR      55  32  41 NE12      30.20F
RICHMOND +     FAIR      48  34  57 NE8       30.19S

$$

INZ060-061-067>069-081>083-085>088-230300-
SOUTHWEST INDIANA

CITY           SKY/WX    TMP DP  RH WIND       PRES   REMARKS
EVANSVILLE     CLOUDY    59  55  87 N3        30.05S
HUNTINGBURG +  CLOUDY    61  42  49 NE12      30.05F
WASHINGTON +   CLOUDY    58  43  56 NE7       30.07F

$$

INZ062-063-066-070>080-084-089>092-230300-
SOUTH CENTRAL AND SOUTHEAST INDIANA

CITY           SKY/WX    TMP DP  RH WIND       PRES   REMARKS
BATESVILLE +   PTCLDY    57  28  33 MISG      30.16S
BEDFORD +      FAIR      63  27  25 NE12      30.10F
BLOOMINGTON    CLOUDY    61  29  29 E10       30.12F
FRENCH LICK *+ MOCLDY    61  28  29 NE13G18   30.08S
MADISON *+     MOCLDY    61  25  25 NE12      30.14R
NORTH VERNON + FAIR      54  34  47 NE7       30.13F
SEYMOUR +      CLOUDY    61  36  39 E10       30.11F

$$





USA.gov is the U.S. government's official web portal to all federal, state and local government web resources and services.